User: anonymous   Login
Location: Melbourne
(37.8666°S, 145.1333°E)
Time: 23:00:05
(UTC+11:00)
Language:

ATLAS CENTAUR R/B - Orbit

View from above orbital plane
View from above orbital plane
View from above satellite
View from above satellite

Ground track
Ground track

The orbit data is extracted from the following two-line orbital elements,

1 28385U 04034B   14288.17523961 0.00039000  00000-0  15840-2 0    09
2 28385  57.4025  13.9353 4059559 356.7214   1.2665  7.36571494    06
Epoch (UTC): 15 October 2014 04:12:20
Eccentricity: 0.4059559
inclination: 57.4025°
perigee height: 250 km
apogee height: 9309 km
right ascension of ascending node: 13.9353°
argument of perigee: 356.7214°
revolutions per day: 7.36571494
mean anomaly at epoch: 1.2665°
orbit number at epoch: 0

The dashed part of the orbit path shows where the satellite is in the earth's shadow,  

DLR